User: anonymous   Login
Location: Wanzleben
(52.0609°N, 11.4408°E)
Time: 15:34:26
(UTC+00:00)
Language:

Landsat 7 - Orbit

View from above orbital plane
View from above orbital plane
View from above satellite
View from above satellite

Ground track
Ground track

The orbit data is extracted from the following two-line orbital elements,

1 25682U 99020A   20339.84334298  .00000086  00000-0  28715-4 0  9992
2 25682  98.0616  37.3047 0001630  76.5977 283.5389 14.57190352151057
Epoch (UTC): 04 December 2020 20:14:24
Eccentricity: 0.0001630
inclination: 98.0616°
perigee height: 701 km
apogee height: 703 km
right ascension of ascending node: 37.3047°
argument of perigee: 76.5977°
revolutions per day: 14.57190352
mean anomaly at epoch: 283.5389°
orbit number at epoch: 15105

The dashed part of the orbit path shows where the satellite is in the earth's shadow,  

DLR